Location: Tierra del Sol
(32.6128°N, 116.3319°W)
Time: 12:05:59
(UTC-07:00)

Daily predictions for brighter satellites

Satellite Brightness Start Highest point End
(mag) Time Altitude Azimuth Time Altitude Azimuth Time Altitude Azimuth
Milstar 3 3.3 19:36:14 10° W 19:45:55 65° S 19:52:33 10° E
ALOS 2.3 19:42:03 10° SSE 19:46:42 78° ENE 19:51:22 10° N
Cosmos 2034 Rocket 4.2 19:45:08 10° S 19:51:19 79° W 19:57:29 10° N
CENTAUR R/B 4.2 19:51:04 10° WSW 19:56:32 37° NW 20:02:39 10° NNE
Resurs 1-3 4.0 19:53:15 10° SE 19:57:22 42° ENE 20:01:31 10° N
Gblst 52 Del rocket 4.5 19:52:27 10° NW 19:58:15 57° NE 20:03:26 11° ESE
Cosmos 1869 Rocket 4.0 19:57:07 10° N 20:01:25 44° E 20:05:39 10° SSE
Cosmos 2360 4.3 19:58:12 10° SSW 20:03:54 86° WNW 20:09:41 10° NNE
Atlas Centaur 2 3.2 20:00:33 10° SW 20:06:45 42° SSE 20:14:10 10° E
SL-8 R/B 3.7 20:02:52 10° NW 20:07:42 88° NE 20:11:58 13° SE
Cosmos 1455 2.1 20:05:47 10° S 20:09:34 89° ESE 20:13:22 10° N
BREEZE-M DEB (TANK) 3.6 20:07:59 10° WNW 20:10:34 45° SW 20:16:13 10° SSE
Cosmos 2242 Rocket 4.4 20:06:48 10° SSE 20:10:46 31° E 20:14:43 10° NNE
Helios 1A 3.8 20:13:13 14° SE 20:16:17 33° ENE 20:20:05 10° N
Cosmos 1869 3.2 20:19:16 10° S 20:23:08 65° E 20:27:03 10° NNE
Cosmos 2279 Rocket 4.4 20:19:36 10° SSE 20:25:20 40° E 20:31:04 10° NNE
DELTA 2 R/B (1) 3.6 20:20:51 10° WNW 20:26:30 86° NNE 20:30:21 21° ESE
CZ-4B DEB 3.8 20:26:45 24° E 20:27:08 24° ENE 20:29:40 10° NNE
Resurs 01 Rocket 2.0 20:24:11 10° S 20:28:35 67° WSW 20:33:02 10° NNW
GRACE-1 4.0 20:26:04 10° N 20:28:48 70° W 20:31:30 10° S
Spot 2 Rocket 3.6 20:24:05 10° S 20:29:10 78° WSW 20:34:17 10° NNW
GRACE-2 4.0 20:26:28 10° N 20:29:11 71° W 20:31:54 10° S
Meteor 2-20 4.5 20:23:24 10° N 20:29:27 61° E 20:35:30 10° SSE
OAO 3 Rocket 3.4 20:25:36 10° W 20:30:29 70° N 20:34:27 16° ENE
BREEZE-M DEB (TANK) 4.0 20:27:16 10° WSW 20:31:07 68° NNW 20:38:36 10° NE
YAOGAN 6 4.5 20:31:23 15° ENE 20:31:23 15° ENE 20:33:26 10° NE
Cosmos 1892 3.7 20:28:26 10° NNW 20:32:05 46° W 20:35:43 10° SSW
Cosmos 1900 4.4 20:27:45 10° NNW 20:32:53 86° WSW 20:36:57 16° SSE
Cosmos 1400 Rocket 4.2 20:31:53 10° NNW 20:35:31 38° W 20:39:11 10° SSW
H-2A R/B 4.3 20:33:47 10° SSW 20:37:24 36° W 20:41:01 10° NNW
Meteor 1-29 2.9 20:34:03 10° NNE 20:37:30 62° E 20:40:29 13° S
CZ-3B DEB 2.2 20:43:49 10° WNW 20:46:35 22° WSW 20:47:29 18° SSW
Cosmos 1933 3.7 20:47:17 38° ESE 20:48:01 42° E 20:51:51 10° NNE
Meteor 2-10 Rocket 4.4 20:46:40 28° SE 20:48:28 34° E 20:53:38 10° NNE
Cosmos 2263 Rocket 3.2 20:44:02 10° N 20:48:46 28° ENE 20:50:09 25° E
Cosmos 220 Rocket 4.2 20:44:24 10° N 20:48:46 54° ENE 20:50:11 37° SE
Envisat 2.9 20:45:59 23° SSE 20:49:06 68° ENE 20:54:08 10° N
Cosmos 2322 Rocket 2.2 20:43:41 10° SSW 20:49:16 81° WNW 20:54:55 10° NNE
Cosmos 1315 Rocket 3.5 20:45:22 10° NNW 20:49:21 54° W 20:52:55 12° S
OTV 4 1.9 20:48:47 10° W 20:51:14 25° SSW 20:51:15 25° SSW
Cosmos 2360 Rocket 2.5 20:57:15 28° SSE 20:59:40 43° ESE 21:04:59 10° NE
Cosmos 1825 2.0 20:57:39 10° N 21:01:28 84° E 21:02:11 57° SSE
USA 186 3.8 21:05:34 16° SW 21:06:39 19° W 21:08:46 10° NW
Cosmos 2322 4.0 21:07:11 42° ESE 21:07:42 43° ESE 21:13:04 10° NE
SEDSat Delta rocket 3.5 21:03:16 10° WSW 21:08:40 74° S 21:10:43 42° E
USA 234 3.3 21:10:15 37° ESE 21:12:55 65° NE 21:19:23 10° NW
Cosmos 2026 Rocket 4.1 21:08:36 10° N 21:14:48 74° W 21:18:59 21° S
Cosmos 1862 3.2 21:12:00 10° N 21:16:02 84° E 21:16:03 84° E
SL-16 R/B 3.2 21:11:43 10° SW 21:17:07 46° WNW 21:22:34 10° N
Helios 1B rocket 4.4 21:15:14 10° NNW 21:18:46 29° WNW 21:22:18 10° SW
ERBS 3.0 21:16:41 10° NW 21:19:24 53° NW 21:19:24 53° NW
Cosmos 1939 Rocket 3.3 21:20:15 47° SSW 21:21:04 58° W 21:25:02 10° NNW
Lacrosse 4 Rocket 1.3 21:17:07 10° NNW 21:21:28 84° ENE 21:21:30 83° ENE
ERS-1 Rocket 2.9 21:22:09 63° ESE 21:22:35 66° ENE 21:27:33 10° N
Cosmos 1733 Rocket 3.3 21:23:29 10° NNW 21:27:55 67° W 21:28:30 59° SW
ATLAS 5 CENTAUR R/B 3.3 21:23:05 10° N 21:28:37 34° NE 21:29:19 33° ENE
Cosmos 1862 Rocket 4.4 21:27:08 23° SW 21:29:36 48° W 21:33:57 10° N
Skynet4D Del rocket 4.4 21:24:38 10° WSW 21:32:35 57° S 21:33:55 51° SE
ARGOS 3.8 21:34:29 40° NE 21:34:29 40° NE 21:38:53 10° N
Cosmos 1408 4.4 21:32:45 10° NNW 21:35:55 27° W 21:36:27 26° WSW
SeaSat 1 3.5 21:36:49 32° NE 21:36:49 32° NE 21:40:32 10° N
Meteor 1-26 Rocket 4.1 21:40:50 67° S 21:41:39 89° W 21:47:26 10° N
Terra 4.2 21:48:57 12° NE 21:48:57 12° NE 21:49:35 10° NNE
Atlas Centaur 2 2.8 21:48:43 10° WSW 21:56:08 72° S 21:56:52 68° SE
USA 229 DEB 3.6 21:49:25 10° SSW 21:56:14 82° WNW 22:03:10 10° NNE
USA 229 3.6 21:49:30 10° SSW 21:56:19 83° WNW 22:03:15 10° NNE
Cosmos 2266 Rocket 3.9 21:56:37 10° N 22:02:49 87° N 22:02:49 87° N
BREEZE-M DEB (TANK) 4.1 21:49:29 10° NW 22:05:30 86° SW 22:05:43 84° S
Nimbus 7 Rocket 4.4 22:02:29 10° NNE 22:08:01 76° NNW 22:08:01 76° NNW
H-2A R/B 3.3 22:14:04 32° N 22:14:04 32° N 22:16:47 10° N
MOS 1-B Rocket 4.1 22:13:25 70° NNW 22:13:25 70° NNW 22:18:25 10° NNW
Cosmos 1867 4.4 22:09:37 10° NNW 22:13:26 44° N 22:13:26 44° N
SPOT 5 4.2 22:22:39 37° NW 22:22:39 37° NW 22:25:38 10° NNW
Milstar 3 3.8 22:22:28 10° W 22:26:44 33° WSW 22:26:44 33° WSW
COSMOS 2428 4.0 22:34:03 35° N 22:34:03 35° N 22:37:20 10° NNE
Cosmos 2263 Rocket 3.6 22:27:43 10° NW 22:31:52 31° W 22:31:52 31° W
Cosmos 2360 Rocket 4.4 22:39:32 10° WSW 22:43:48 22° WNW 22:48:06 10° N
Cosmos 2333 Rocket 4.4 23:16:06 20° N 23:16:06 20° N 23:17:47 10° NNE
ATLAS 5 CENTAUR R/B 4.1 23:07:38 10° NW 23:10:52 28° WNW 23:10:52 28° WNW
Cosmos 2278 Rocket 4.3 23:21:55 10° N 23:23:48 21° N 23:23:48 21° N
